timestamp,wind_dir_avg,wind_spd_max_dir,wind_spd_avg,wind_spd_gust,battery_voltage,lat,long
2017-12-30 00:00:00+00:00,322.0,323.0,5.99,6.92,,47.59359,-54.27349
2017-12-30 00:10:00+00:00,344.0,338.0,3.94,4.77,,47.59359,-54.27349
2017-12-30 00:20:00+00:00,329.0,321.0,4.45,5.7,,47.59359,-54.27349
2017-12-30 00:30:00+00:00,331.0,331.0,3.2,4.07,,47.59359,-54.27349
2017-12-30 00:40:00+00:00,336.0,337.0,4.42,5.33,,47.59359,-54.27349
2017-12-30 00:50:00+00:00,320.0,317.0,5.83,6.95,,47.59359,-54.27349
2017-12-30 01:00:00+00:00,334.0,332.0,4.04,4.82,,47.59359,-54.27349
2017-12-30 01:10:00+00:00,318.0,326.0,4.53,5.79,,47.59359,-54.27349
2017-12-30 01:20:00+00:00,341.0,346.0,4.17,4.72,,47.59359,-54.27349
2017-12-30 01:30:00+00:00,310.0,308.0,4.49,5.19,,47.59359,-54.27349
2017-12-30 01:40:00+00:00,336.0,332.0,4.58,5.32,,47.59359,-54.27349
2017-12-30 01:50:00+00:00,347.0,346.0,3.47,4.58,,47.59359,-54.27349
2017-12-30 02:00:00+00:00,323.0,336.0,5.07,6.09,,47.59359,-54.27349
2017-12-30 02:10:00+00:00,327.0,331.0,4.88,5.79,,47.59359,-54.27349
2017-12-30 02:20:00+00:00,1.0,1.0,5.37,5.97,,47.59359,-54.27349
2017-12-30 02:30:00+00:00,355.0,356.0,4.37,5.03,,47.59359,-54.27349
2017-12-30 02:40:00+00:00,340.0,344.0,2.98,3.79,,47.59359,-54.27349
2017-12-30 02:50:00+00:00,342.0,354.0,2.83,3.64,,47.59359,-54.27349
2017-12-30 03:00:00+00:00,344.0,347.0,2.65,3.21,,47.59359,-54.27349
2017-12-30 03:10:00+00:00,8.0,349.0,1.92,2.59,,47.59359,-54.27349
2017-12-30 03:20:00+00:00,358.0,351.0,2.53,3.24,,47.59359,-54.27349
2017-12-30 03:30:00+00:00,18.0,25.0,2.31,2.79,,47.59359,-54.27349
2017-12-30 03:40:00+00:00,3.0,18.0,2.55,3.26,,47.59359,-54.27349
2017-12-30 03:50:00+00:00,12.0,7.0,2.98,3.73,,47.59359,-54.27349
2017-12-30 04:00:00+00:00,9.0,359.0,2.08,2.82,,47.59359,-54.27349
2017-12-30 04:10:00+00:00,12.0,15.0,2.72,3.42,,47.59359,-54.27349
2017-12-30 04:20:00+00:00,8.0,357.0,2.37,3.05,,47.59359,-54.27349
2017-12-30 04:30:00+00:00,338.0,335.0,2.41,3.16,,47.59359,-54.27349
2017-12-30 04:40:00+00:00,338.0,336.0,2.89,3.69,,47.59359,-54.27349
2017-12-30 04:50:00+00:00,355.0,4.0,2.68,3.43,,47.59359,-54.27349
2017-12-30 05:00:00+00:00,346.0,359.0,2.02,2.49,,47.59359,-54.27349
2017-12-30 05:10:00+00:00,356.0,355.0,3.14,3.61,,47.59359,-54.27349
2017-12-30 05:20:00+00:00,3.0,3.0,3.34,3.94,,47.59359,-54.27349
2017-12-30 05:30:00+00:00,357.0,350.0,3.51,4.12,,47.59359,-54.27349
2017-12-30 05:40:00+00:00,358.0,2.0,3.54,4.31,,47.59359,-54.27349
2017-12-30 05:50:00+00:00,348.0,346.0,3.39,3.92,,47.59359,-54.27349
2017-12-30 06:00:00+00:00,0.0,1.0,2.73,3.18,,47.59359,-54.27349
2017-12-30 06:10:00+00:00,351.0,353.0,1.86,2.54,,47.59359,-54.27349
2017-12-30 06:20:00+00:00,16.0,5.0,2.0,2.53,,47.59359,-54.27349
2017-12-30 06:30:00+00:00,5.0,352.0,1.13,1.51,,47.59359,-54.27349
2017-12-30 06:40:00+00:00,51.0,47.0,1.14,1.46,,47.59359,-54.27349
2017-12-30 06:50:00+00:00,350.0,4.0,1.72,2.76,,47.59359,-54.27349
2017-12-30 07:00:00+00:00,19.0,42.0,2.59,3.26,,47.59359,-54.27349
2017-12-30 07:10:00+00:00,10.0,4.0,1.7,2.3,,47.59359,-54.27349
2017-12-30 07:20:00+00:00,30.0,31.0,2.81,3.87,,47.59359,-54.27349
2017-12-30 07:30:00+00:00,17.0,16.0,3.76,4.41,,47.59359,-54.27349
2017-12-30 07:40:00+00:00,29.0,23.0,3.57,4.32,,47.59359,-54.27349
2017-12-30 07:50:00+00:00,18.0,12.0,4.82,5.66,,47.59359,-54.27349
2017-12-30 08:00:00+00:00,23.0,20.0,4.58,5.03,,47.59359,-54.27349
2017-12-30 08:10:00+00:00,34.0,34.0,5.41,6.04,,47.59359,-54.27349
2017-12-30 08:20:00+00:00,67.0,68.0,6.45,7.45,,47.59359,-54.27349
2017-12-30 08:30:00+00:00,67.0,63.0,8.53,9.52,,47.59359,-54.27349
2017-12-30 08:40:00+00:00,64.0,70.0,10.64,12.31,,47.59359,-54.27349
2017-12-30 08:50:00+00:00,62.0,57.0,10.52,11.79,,47.59359,-54.27349
2017-12-30 09:00:00+00:00,57.0,54.0,9.57,10.9,,47.59359,-54.27349
2017-12-30 09:10:00+00:00,66.0,60.0,8.21,9.31,,47.59359,-54.27349
2017-12-30 09:20:00+00:00,74.0,74.0,7.02,8.25,,47.59359,-54.27349
2017-12-30 09:30:00+00:00,113.0,125.0,3.7,5.76,,47.59359,-54.27349
2017-12-30 09:40:00+00:00,93.0,89.0,3.52,5.05,,47.59359,-54.27349
2017-12-30 09:50:00+00:00,89.0,79.0,3.2,4.59,,47.59359,-54.27349
2017-12-30 10:00:00+00:00,91.0,89.0,3.19,4.28,,47.59359,-54.27349
2017-12-30 10:10:00+00:00,100.0,109.0,3.7,4.9,,47.59359,-54.27349
2017-12-30 10:20:00+00:00,93.0,96.0,3.79,4.72,,47.59359,-54.27349
2017-12-30 10:30:00+00:00,88.0,78.0,4.8,6.16,,47.59359,-54.27349
2017-12-30 10:40:00+00:00,84.0,83.0,6.41,7.58,,47.59359,-54.27349
2017-12-30 10:50:00+00:00,84.0,83.0,7.01,8.07,,47.59359,-54.27349
2017-12-30 11:00:00+00:00,82.0,85.0,4.74,6.52,,47.59359,-54.27349
2017-12-30 11:10:00+00:00,95.0,82.0,4.69,7.19,,47.59359,-54.27349
2017-12-30 11:20:00+00:00,95.0,99.0,5.0,8.63,,47.59359,-54.27349
2017-12-30 11:30:00+00:00,85.0,77.0,7.33,9.77,,47.59359,-54.27349
2017-12-30 11:40:00+00:00,90.0,83.0,5.85,7.49,,47.59359,-54.27349
2017-12-30 11:50:00+00:00,90.0,83.0,5.78,7.31,,47.59359,-54.27349
2017-12-30 12:00:00+00:00,97.0,98.0,5.12,7.67,,47.59359,-54.27349
2017-12-30 12:10:00+00:00,84.0,88.0,6.15,7.62,,47.59359,-54.27349
2017-12-30 12:20:00+00:00,93.0,86.0,4.48,6.46,,47.59359,-54.27349
2017-12-30 12:30:00+00:00,112.0,126.0,3.22,5.21,,47.59359,-54.27349
2017-12-30 12:40:00+00:00,121.0,116.0,3.25,5.88,,47.59359,-54.27349
2017-12-30 12:50:00+00:00,90.0,96.0,5.38,7.52,,47.59359,-54.27349
2017-12-30 13:00:00+00:00,89.0,90.0,4.29,5.73,,47.59359,-54.27349
2017-12-30 13:10:00+00:00,93.0,94.0,4.76,7.29,,47.59359,-54.27349
2017-12-30 13:20:00+00:00,114.0,108.0,4.43,7.7,,47.59359,-54.27349
2017-12-30 13:30:00+00:00,97.0,94.0,3.73,6.1,,47.59359,-54.27349
2017-12-30 13:40:00+00:00,96.0,94.0,5.05,6.84,,47.59359,-54.27349
2017-12-30 13:50:00+00:00,88.0,90.0,4.75,7.34,,47.59359,-54.27349
2017-12-30 14:00:00+00:00,102.0,109.0,5.49,8.05,,47.59359,-54.27349
2017-12-30 14:10:00+00:00,91.0,100.0,5.24,7.31,,47.59359,-54.27349
2017-12-30 14:20:00+00:00,96.0,88.0,5.61,8.35,,47.59359,-54.27349
2017-12-30 14:30:00+00:00,94.0,115.0,5.59,7.29,,47.59359,-54.27349
2017-12-30 14:40:00+00:00,103.0,126.0,5.06,7.66,,47.59359,-54.27349
2017-12-30 14:50:00+00:00,103.0,110.0,5.26,7.57,,47.59359,-54.27349
2017-12-30 15:00:00+00:00,87.0,83.0,6.4,8.94,,47.59359,-54.27349
2017-12-30 15:10:00+00:00,93.0,82.0,5.0,7.39,,47.59359,-54.27349
2017-12-30 15:20:00+00:00,95.0,104.0,6.17,8.67,,47.59359,-54.27349
2017-12-30 15:30:00+00:00,91.0,84.0,6.74,9.13,,47.59359,-54.27349
2017-12-30 15:40:00+00:00,91.0,77.0,6.17,8.96,,47.59359,-54.27349
2017-12-30 15:50:00+00:00,90.0,86.0,7.06,9.89,,47.59359,-54.27349
2017-12-30 16:00:00+00:00,83.0,81.0,10.13,12.52,,47.59359,-54.27349
2017-12-30 16:10:00+00:00,87.0,88.0,9.56,12.46,,47.59359,-54.27349
2017-12-30 16:20:00+00:00,82.0,79.0,10.85,12.74,,47.59359,-54.27349
2017-12-30 16:30:00+00:00,82.0,87.0,10.58,12.06,,47.59359,-54.27349
2017-12-30 16:40:00+00:00,82.0,81.0,10.76,13.25,,47.59359,-54.27349
2017-12-30 16:50:00+00:00,75.0,73.0,10.41,12.0,,47.59359,-54.27349
2017-12-30 17:00:00+00:00,78.0,75.0,9.76,11.39,,47.59359,-54.27349
2017-12-30 17:10:00+00:00,77.0,70.0,10.54,12.62,,47.59359,-54.27349
2017-12-30 17:20:00+00:00,80.0,85.0,11.16,12.41,,47.59359,-54.27349
2017-12-30 17:30:00+00:00,81.0,82.0,11.42,12.47,,47.59359,-54.27349
2017-12-30 17:40:00+00:00,80.0,78.0,10.02,12.76,,47.59359,-54.27349
2017-12-30 17:50:00+00:00,74.0,71.0,10.96,12.12,,47.59359,-54.27349
2017-12-30 18:00:00+00:00,80.0,83.0,9.94,11.58,,47.59359,-54.27349
2017-12-30 18:10:00+00:00,80.0,79.0,10.04,11.82,,47.59359,-54.27349
2017-12-30 18:20:00+00:00,80.0,77.0,9.87,12.14,,47.59359,-54.27349
2017-12-30 18:30:00+00:00,80.0,81.0,9.68,11.84,,47.59359,-54.27349
2017-12-30 18:40:00+00:00,86.0,88.0,9.81,11.62,,47.59359,-54.27349
2017-12-30 18:50:00+00:00,83.0,84.0,10.09,11.24,,47.59359,-54.27349
2017-12-30 19:00:00+00:00,85.0,75.0,7.75,11.64,,47.59359,-54.27349
2017-12-30 19:10:00+00:00,85.0,84.0,9.97,13.3,,47.59359,-54.27349
2017-12-30 19:20:00+00:00,85.0,82.0,9.88,14.18,,47.59359,-54.27349
2017-12-30 19:30:00+00:00,84.0,83.0,9.28,13.11,,47.59359,-54.27349
2017-12-30 19:40:00+00:00,82.0,84.0,9.82,14.09,,47.59359,-54.27349
2017-12-30 19:50:00+00:00,81.0,83.0,12.11,15.46,,47.59359,-54.27349
2017-12-30 20:00:00+00:00,80.0,77.0,8.84,13.84,,47.59359,-54.27349
2017-12-30 20:10:00+00:00,79.0,82.0,10.65,14.78,,47.59359,-54.27349
2017-12-30 20:20:00+00:00,78.0,79.0,8.76,12.27,,47.59359,-54.27349
2017-12-30 20:30:00+00:00,87.0,79.0,7.57,9.15,,47.59359,-54.27349
2017-12-30 20:40:00+00:00,83.0,79.0,8.45,11.54,,47.59359,-54.27349
2017-12-30 20:50:00+00:00,85.0,84.0,7.9,9.01,,47.59359,-54.27349
2017-12-30 21:00:00+00:00,79.0,76.0,8.15,9.85,,47.59359,-54.27349
2017-12-30 21:10:00+00:00,79.0,80.0,9.24,11.09,,47.59359,-54.27349
2017-12-30 21:20:00+00:00,75.0,79.0,9.04,10.65,,47.59359,-54.27349
2017-12-30 21:30:00+00:00,79.0,81.0,8.32,10.35,,47.59359,-54.27349
2017-12-30 21:40:00+00:00,76.0,71.0,9.46,10.73,,47.59359,-54.27349
2017-12-30 21:50:00+00:00,76.0,72.0,8.51,10.7,,47.59359,-54.27349
2017-12-30 22:00:00+00:00,76.0,73.0,9.78,12.85,,47.59359,-54.27349
2017-12-30 22:10:00+00:00,80.0,82.0,9.86,11.15,,47.59359,-54.27349
2017-12-30 22:20:00+00:00,77.0,77.0,8.86,10.11,,47.59359,-54.27349
2017-12-30 22:30:00+00:00,82.0,82.0,8.56,10.24,,47.59359,-54.27349
2017-12-30 22:40:00+00:00,80.0,79.0,8.63,9.54,,47.59359,-54.27349
2017-12-30 22:50:00+00:00,77.0,77.0,8.3,9.4,,47.59359,-54.27349
2017-12-30 23:00:00+00:00,66.0,56.0,7.54,8.27,,47.59359,-54.27349
2017-12-30 23:10:00+00:00,70.0,75.0,8.88,10.3,,47.59359,-54.27349
2017-12-30 23:20:00+00:00,66.0,66.0,7.65,8.52,,47.59359,-54.27349
2017-12-30 23:30:00+00:00,47.0,50.0,6.41,7.86,,47.59359,-54.27349
2017-12-30 23:40:00+00:00,45.0,52.0,6.81,7.81,,47.59359,-54.27349
2017-12-30 23:50:00+00:00,27.0,27.0,6.53,8.1,,47.59359,-54.27349
